Etusivu
METAR-TAF:

METAR-TAF

Lentoasemat :

Dillon Airport

Dillon, Montana, Yhdysvallat

Leveyspiiri: 45-15-27N, Pituuspiiri: 112-33-16W, korkeus merenpinnasta: 1597 m

Tämänhetkinen sää

Tämä raportti tehtiin 53 minuuttia sitten, kello 11.53 UTC
Tuuli 11 kn etelästä
Lämpötila -8°C
Kosteus 62%
Ilmanpaine 1018 hPa
Näkyvyys: 16.1 km
selkeää

METAR: KDLN 221153Z AUTO 18011KT 10SM CLR M08/M14 A3007 RMK AO2 SLP223 T10781144 11056 21083 55004

Aika: 05:46 (12:46 UTC)


TAF: puuttuu

Säähavainnot ja -ennusteet yli 4000 lentoasemalta (METAR- ja TAF-raportit).

Käytössä olevat sääasemat on merkitty karttaan keltaisilla ja punaisilla pisteillä.

Aseta hiiri pisteen päälle nähdäksesi sääaseman nimen.

Klikkaa sitten nähdäksesi säähavainnot ja -ennusteet.

Kartan vaihtaminen: klikkaa mustalla rastilla varustettuja vihreitä pisteitä, niin voit zoomata sisään; viivalla varustettua vihreää pistettä, niin voit zoomata ulos tai vihreitä nuolia, niin pääset viereisille kartoille.


METAR-TAF: